Regional Weather Roundup
Issued by NWS Wakefield, VA

Home | Current Version | Previous Version | Graphics & Text | Print | Product List | Glossary On
Versions: 1 2 3 4 5 6 7 8 9 10 11 12 13 14 15 16 17 18 19 20 21 22 23 24 25 26 27 28 29 30 31 32 33 34 35 36 37 38 39 40 41 42 43 44 45 46 47 48 49 50
000
ASUS41 KAKQ 021810
RWRAKQ

REGIONAL WEATHER ROUNDUP
NATIONAL WEATHER SERVICE WAKEFIELD VA
200 PM EDT TUE SEP 02 2014

Note: "fair" indicates few or no clouds below 12,000 feet with no
significant weather and/or obstructions to visibility. * = Denotes
station may not report precipitation (e.g., rain,snow,etc.),
thunder or fog.

VAZ042-051-052>054-056-021900-
NORTHERN VIRGINIA

CITY           SKY/WX    TMP DP  RH WIND       PRES   REMARKS
WASH NATIONAL  MOSUNNY   93  69  45 S10       29.93F HX  98
DULLES         MOSUNNY   89  70  53 S8        29.94F
FORT BELVOIR   MOSUNNY   91  71  52 S8        29.94F HX  97
QUANTICO       MOSUNNY   88  75  65 S9        29.94F HX  97
FREDERICKSBRG* SUNNY     93  70  45 W8        29.94F HX  99
STAFFORD*      MOSUNNY   90  70  52 CALM      29.98F HX  95
WARRENTON      MOSUNNY   94  76  55 SE3       29.94F HX 107
CULPEPER*      SUNNY    N/A N/A N/A SW5       29.94F
MANASSAS*      SUNNY     91  72  52 S8        29.94F HX  98
LEESBURG*      MOSUNNY   91  73  55 SW6       29.94F HX 100
WINCHESTER     CLOUDY    90  68  48 S5        29.94F
$$

VAZ048-049-060>072-079>083-021900-
CENTRAL AND SOUTH CENTRAL VIRGINIA...AND NORTH CENTRAL NORTH CAROLINA

CITY           SKY/WX    TMP DP  RH WIND       PRES   REMARKS
RICHMOND       MOSUNNY   98  62  30 SW7G21    29.96F HX  99
CHESTERFIELD*  CLEAR     97  64  34 S6        29.98F HX  99
PETERSBURG*    SUNNY     94  64  37 SW10G16   29.98F HX  95
HANOVER        SUNNY     96  66  37 NW12      29.97F HX  99
TAPPAHANNOCK*  MOSUNNY   96  58  28 S8        29.96F HX  96
CHARLOTTSVILLE SUNNY     90  68  48 SW9       29.96F
ORANGE*        MOSUNNY   91  68  46 S10       29.97F HX  95
LOUISA*        MOSUNNY   91  68  46 W7        29.95F HX  95
FARMVILLE*     MOSUNNY   95  61  31 SW8G16    29.96F HX  95
SOUTH HILL*    SUNNY     93  72  49 W5        30.06F HX 100
ROANOKE RAPIDS CLEAR     91  68  46 W7        30.00F HX  95
RALEIGH        MOSUNNY   94  69  44 VRB6      30.03F HX  99
$$

VAZ088>098-021900-
SOUTHEAST VIRGINIA

CITY           SKY/WX    TMP DP  RH WIND       PRES   REMARKS
NORFOLK        MOSUNNY   97  66  36 SW12      29.97F HX 100
VIRGINIA BEACH MOSUNNY   94  69  44 SW16      29.96F HX  99
NORFOLK NAVAL  MOSUNNY   96  71  44 W9        29.98F HX 103
WEST POINT*    NOT AVBL
NEWPORT NEWS   SUNNY     98  71  41 SW13      29.97F HX 106
LANGLEY AFB    MOSUNNY   95  72  47 SW8G18    29.96F HX 103
FORT EUSTIS    MOSUNNY   95  65  37 SW6       29.95F HX  98
WILLIAMSBURG*  SUNNY    100  70  37 W10       29.97F HX 107
FRANKLIN*      MOSUNNY   93  70  46 SW7       29.99S HX  99
WAKEFIELD      MOSUNNY   94  71  47 SW7       29.98F HX 101
$$

VAZ020-022-025-037-045-021900-
WESTERN AND SOUTHWEST VIRGINIA

CITY           SKY/WX    TMP DP  RH WIND       PRES   REMARKS
STAUNTON*      PTSUNNY   89  62  39 W3        30.01F
HOT SPRINGS VA MOSUNNY   75  61  62 W14       30.19F
LYNCHBURG      SUNNY     89  69  51 VRB6      30.03F
DANVILLE       SUNNY     92  68  45 W10       30.02F HX  96
MARTINSVILLE   SUNNY     92  70  48 W5        30.06F HX  98
ROANOKE        MOSUNNY   91  65  41 SW9       30.04F
BLACKSBURG     MOSUNNY   88  70  55 W7        30.12S
DUBLIN*        SUNNY     87  66  48 W6        30.11F
MARION*        MOSUNNY  N/A N/A N/A W12       30.16F
HILLSVILLE*    MOSUNNY   82  64  52 W7        30.15F
RICHLANDS*     PTCLDY    84  68  58 W13G18    30.14F
WISE*          PTSUNNY   81  66  61 S8        30.15F
ABINGDON*      MOSUNNY   84  70  61 W9        30.12F
$$

MDZ021>025-VAZ099-100-021900-
SOUTHERN MARYLAND AND THE DELMARVA PENINSULA

CITY           SKY/WX    TMP DP  RH WIND       PRES   REMARKS
PATUXENT RIVER MOSUNNY   90  71  53 E9        29.94F HX  96
BAY BRIDGE APT   N/A     90  66  45 SW6       29.94S
LEONARDTOWN    MOSUNNY   91  63  38 SW8       29.96S
DOVER          SUNNY     92  70  48 SW9G20    29.92F HX  98
GEORGETOWN     CLOUDY    91  67  44 S5        29.94F
EASTON         MOSUNNY   93  68  43 W5        29.98F HX  97
CAMBRIDGE      SUNNY     91  64  40 W6        29.94F
SALISBURY      SUNNY     96  67  38 VRB7      29.94F HX 100
OCEAN CITY     MOSUNNY   90  76  63 S8        29.94F HX 101
WALLOPS ISLAND SUNNY     92  73  53 SW9       29.96F HX 100
ACCOMACK*      NOT AVBL
$$

NCZ012>017-030>032-021900-
EASTERN NORTH CAROLINA

CITY           SKY/WX    TMP DP  RH WIND       PRES   REMARKS
ELIZABETH CITY SUNNY     92  75  57 S12       29.99F HX 103
AHOSKIE*       SUNNY     90  72  55 S5        30.00F HX  96
EDENTON*       SUNNY     92  74  55 SW8       30.01F HX 100
CURRITUCK*     MOSUNNY   94  67  40 S5        29.99F HX  98
KILL DEVIL HLS SUNNY     93  73  51 W6        30.00F HX 102
MANTEO         SUNNY     89  73  58 S3        30.01F HX  97
CAPE HATTERAS  SUNNY     86  78  77 SW10      30.05F HX  98
GOLDSBORO      MOSUNNY   93  76  58 VRB7      30.00F HX 106
WASHINGTON     SUNNY     92  71  50 SW8       30.03S HX  99
GREENVILLE     SUNNY     95  72  46 SW8       30.04F HX 103
NEW BERN       SUNNY     95  74  50 W9        30.05S HX 105
WILMINGTON     SUNNY     90  77  65 SE10      30.07R HX 103
$$

VAZ048-021900-
ELSEWHERE

CITY           SKY/WX    TMP DP  RH WIND       PRES   REMARKS
HARRISBURG PA  PTSUNNY   87  68  52 W8        29.90F
BALTIMORE      MOSUNNY   90  69  50 W7        29.92F
ANNAPOLIS      MOSUNNY   90  67  46 NW8       29.93F
ANDREWS AFB    MOSUNNY   91  70  49 VRB6      29.95F HX  96
WILMINGTON DE  PTSUNNY   90  72  55 SW10      29.92F HX  97
PHILADELPHIA   MOSUNNY   91  69  48 SW13      29.90F HX  96
WILDWOOD NJ*   MOSUNNY   91  70  49 W9        29.94F HX  97
ATLANTIC CITY  MOSUNNY   90  70  51 SW9       29.91F HX  95
HENDERSON NC   MOSUNNY   92  64  40 NW5       30.02F
GREENSBORO     PTSUNNY   93  66  40 SW10      30.04F HX  96
ROCKY MOUNT    SUNNY     94  72  48 S7        30.02F HX 102
FAYETTEVILLE   PTSUNNY   94  69  44 S6        30.02F HX  99
CHARLOTTE      MOSUNNY   93  67  42 VRB5      30.06F HX  96
$$

VAZ100-021900-
MARINE

STATION/POSITION TIME  TEMP    WIND        PRES    WAVE   SWELL
                       AIR SEA DIR/SP/G            HT/PER HT/PER
                 (UTC) (F)     (DEG/KT/KT) (MB)    (FT/S) (FT/S)
44066 TX TWR #4  1800   76 76  220/  8/ 10 1013.0F   3/ 6   3/ 6
CAPE MAY NJ      1800   87 82  250/  4/  4 1013.2F
LEWES DE         1800   90 77  280/  8/ 11 1013.4S
15NM E FENWICK I 1800   79 76              1013.9F   3/ 9
OCEAN-CITY-INLET 1800   81 77  200/  7/ 11 1013.7F
WACHAPREAGUE VA  1800   88 83  190/  8/ 11 1014.5F
THOMAS POINT MD  1800   85 81  170/  8/  8 1014.7F
GOOSES REEF MD   1800   85     150/  4/  6 1014.5S
COVE POINT MD    1800   85     140/  6/  7 1014.0S
SOLOMONS ISLAND  1800      80                N/A
BISHOPS HEAD MD  1800   86 84  220/  5/  5 1014.0S
PINEY POINT MD   1800          360/  3/  4   N/A
POTOMAC MD       1800   84     120/  6/  8 1013.8S
CAMBRIDGE MD     1800   87 80  350/  6/  8 1013.7S
LEWISETTA VA     1800   85 81   80/  6/  8 1013.8F
RAPPAHANNOCK LGT 1800          180/ 10/ 11 1015.1F
STINGRAY PT      1800   85     150/  6/  8   N/A
YORK RVR RNG VA  1800   88     190/  3/  4 1014.3F
YORKTOWN VA      1800   92 81  240/  9/ 11 1014.3F
JAMESTOWN VA     1800   88     360/  4/  6   N/A
DOMINION TERM VA 1800   86     190/  6/  7 1015.0F
KIPTOPEKE VA     1800      85  150/  2/  3   N/A
CHES BAY BRIDGE  1800   87 79  270/ 10/ 11 1014.4F
CAPE HENRY VA    1800   86      50/  5/  6 1013.9F
CHESAPEAKE LGHT  1700   82     200/  9/ 10 1016.2F
WILLOUBY STN VA  1800   88     240/  7/  7 1013.8F
S CRANEY ISL VA  1800          200/  7/ 12 1014.6F
CAPE HENRY BUOY  1800      81                N/A     2/10
1ST LANDING BUOY 1800   86     320/  2/  4 1014.6F
CAPE CHARLES BUO 1800      82                N/A     2/10   2/10
OFFSHORE WE BUOY 1800      79                N/A     3/13   2/13
64NM E OF VA BCH 1800   79 78  210/ 10/ 12 1015.6F   3/ 5   2/ 9
DUCK PIER NC     1800   87 75  210/ 10/ 11 1015.4F
44056 DUCK FRF   1800                        N/A     2/12   2/12
OREGON INLET NC  1800   83 83  190/ 14/ 16 1016.5F
HATTERAS NC      1800   85 83  220/ 11/ 15 1018.0F
DIAMOND SHLS NC  1800   81     200/ 16/ 17 1017.6F   3/ 5   2/ 9
CAPE LOOKOUT NC  1700   83     210/ 10/ 12 1018.5R
$$



USA.gov is the U.S. government's official web portal to all federal, state and local government web resources and services.